Orbital Elements at Epoch 2459200.5 (2020-Dec-17.0) TDB
Reference: JPL 14 (heliocentric ecliptic J2000)
Element | Value | Uncertainty (1-sigma) | Units |
e | .0889410124890477 | 4.694e-08 | |
a | 2.800293564914563 | 2.3283e-08 | au |
q | 2.551232619984497 | 1.276e-07 | au |
i | 3.521274761860335 | 5.9254e-06 | deg |
node | 340.1951188934142 | 7.8199e-05 | deg |
peri | 316.0991555428349 | 8.6228e-05 | deg |
M | 172.2988953534663 | 4.0516e-05 | deg |
tp | 2458381.311658702772 (2018-Sep-19.81165870) | 0.00018829 | TDB |
period | 1711.605882684315 4.69 | 2.1347e-05 5.844e-08 | d yr |
n | .2103287933524809 | 2.6232e-09 | deg/d |
Q | 3.049354509844629 | 2.5354e-08 | au |
|
| | Orbit Determination Parameters
Additional Information
|